Flag for U.S.A. Weather past 2 weeks in Eau Claire, Wisconsin, U.S.A.

Now
61 °F

Clear.


Feels Like: 61 °F
Forecast: 53 / 77 °F
Wind: 5 mph from Northwest

Location: Eau Claire County Airport

Current Time: Aug 4, 2015 at 2:45:36 AM

Latest Report: Aug 4, 2015 at 1:56 AM


Visibility: 10 mi

Pressure: 29.90 "Hg

Humidity: 75%

Dew point: 53 °F

Location of Eau ClaireLocation

Historic Weather in Eau Claire — Graph

°F

Eau Claire temperature yesterday

Maximum temperature yesterday: 78 °F (at 1:56 PM)
Minimum temperature yesterday: 56 °F (at 4:56 AM)
Average temperature yesterday: 67 °F

Past Weeks' High & Low Weather Summary

 TemperatureHumidityPressure
High86 °F (Jul 25, 4:56 PM)97% (Jul 23, 12:56 AM)30.01 "Hg (Jul 23, 12:56 AM)
Low55 °F (Jul 21, 4:56 AM)35% (Jul 29, 12:56 PM)29.56 "Hg (Aug 2, 11:56 AM)
Average73 °F66%29.89 "Hg
* Reported Jul 20 1:56 AM — Aug 4 1:56 AM, Eau Claire, Weather by CustomWeather, © 2015

Note: Actual official high and low records may vary slightly from our data, if they occured in-between our weather recording intervals... More about our weather records

Advertising

Eau Claire weather history for previous 24 hours

 ConditionsComfort  
Time TempWeatherWind HumidityBarometerVisibility
1:56 AM
Tue, Aug 4
61 °FClear.5 mph75%29.90 "Hg10 mi
12:56 AM64 °FPassing clouds.6 mph68%29.90 "Hg10 mi
11:56 PM
Mon, Aug 3
64 °FPassing clouds.6 mph68%29.89 "Hg10 mi
10:56 PM66 °FOvercast.5 mph63%29.88 "Hg10 mi
9:56 PM64 °FOvercast.3 mph70%29.88 "Hg10 mi
8:56 PM65 °FSunny.No wind66%29.87 "Hg10 mi
7:56 PM71 °FSunny.3 mph49%29.87 "Hg10 mi
6:56 PM75 °FPartly sunny.10 mph42%29.86 "Hg10 mi
5:56 PM75 °FOvercast.13 mph40%29.86 "Hg10 mi
4:56 PM77 °FScattered clouds.16 mph36%29.86 "Hg10 mi
3:56 PM74 °FPassing clouds.14 mph40%29.86 "Hg10 mi
2:56 PM78 °FPartly sunny.14 mph36%29.85 "Hg10 mi
1:56 PM78 °FPassing clouds.14 mph37%29.85 "Hg10 mi
12:56 PM76 °FPassing clouds.21 mph40%29.85 "Hg10 mi
11:56 AM75 °FSunny.21 mph37%29.85 "Hg10 mi
10:56 AM74 °FSunny.13 mph40%29.84 "Hg10 mi
9:56 AM71 °FSunny.14 mph44%29.85 "Hg10 mi
8:56 AM67 °FSunny.8 mph59%29.85 "Hg10 mi
7:56 AM61 °FSunny.8 mph70%29.84 "Hg10 mi
6:56 AM58 °FSunny.6 mph75%29.83 "Hg10 mi
5:56 AM57 °FClear.7 mph74%29.82 "Hg10 mi
4:56 AM56 °FClear.6 mph77%29.82 "Hg10 mi
3:56 AM57 °FClear.6 mph72%29.82 "Hg10 mi
2:56 AM57 °FClear.3 mph69%29.81 "Hg10 mi
Weather by CustomWeather, © 2015

See weather overviewHow to use our weather pages